Wind_Speed
13 12 14 12 12 10 14 15 17 18 18 17 17 17 15 13 10 8 8 8 9 9 10 10 10 7 12 12 11 9 10 11 12 12 8 6 7 8 8 7 5 5 7 7 8 9 9 9 11
13 13 14 12 9 11 14 15 17 18 19 18 17 16 15 15 12 10 10 11 11 10 12 12 11 7 14 14 13 9 7 7 7 6 7 6 7 7 4 4 5 6 6 8 9 10 11 11 12
14 13 12 14 9 13 14 14 17 17 17 18 19 18 15 13 10 10 10 11 12 13 11 13 14 12 11 12 12 10 9 8 7 7 6 8 5 4 4 5 6 7 8 10 10 10 11 10 10
14 13 13 14 12 14 14 14 16 14 15 15 17 17 15 16 15 15 13 12 11 11 12 14 16 18 15 14 14 12 11 10 8 7 5 3 3 3 3 3 3 4 5 7 7 9 9 8 9
15 14 13 13 13 13 14 15 16 14 13 13 13 14 14 13 14 13 14 14 15 14 14 14 14 15 15 14 13 13 12 11 10 8 6 5 3 1 1 2 2 4 5 6 7 8 9 8 9
15 13 14 11 12 12 12 13 13 12 12 12 11 11 10 11 10 11 12 12 12 12 13 14 14 15 14 13 12 11 10 9 7 7 5 4 2 2 2 3 5 6 7 8 9 10 11 11 12
15 14 14 11 10 11 9 11 11 10 9 10 9 9 9 9 8 10 9 10 10 11 10 11 12 11 11 10 9 8 7 6 5 5 4 3 2 1 2 2 3 4 5 6 8 10 10 11 10
17 14 13 12 10 9 9 9 9 9 7 7 6 6 5 6 5 6 7 7 8 8 8 8 8 8 8 7 7 6 5 4 3 2 2 2 3 4 6 6 7 7 8 9 10 11 12 12 12
18 15 12 11 10 9 8 6 7 7 8 6 6 4 3 4 3 3 3 4 5 6 7 7 7 6 5 4 4 4 3 2 0 1 2 3 3 5 6 9 10 11 12 13 14 14 15 16 16
17 15 13 11 9 7 7 7 6 6 5 5 5 5 4 4 3 2 2 2 2 3 4 4 4 5 4 3 3 2 1 0 2 3 2 4 5 7 9 10 12 12 13 15 16 18 18 19 19
18 16 14 12 10 9 8 7 6 5 4 3 2 3 3 2 2 2 1 1 2 2 2 2 2 2 2 1 1 1 1 2 3 4 4 6 8 10 10 12 13 14 13 14 16 18 19 20 20
19 16 15 14 10 10 9 8 7 6 5 4 5 3 1 0 1 1 1 2 3 3 4 4 3 3 3 2 2 2 2 3 5 7 7 8 10 11 12 13 14 15 16 16 17 17 19 20 21
21 19 18 16 14 14 12 11 12 10 8 6 6 6 3 3 2 2 1 2 2 2 2 2 1 2 2 2 3 3 3 4 6 9 10 11 13 14 16 17 18 19 19 19 20 20 21 21 21
23 22 20 19 19 17 16 15 18 12 10 9 9 8 7 6 5 5 5 4 3 3 2 1 1 1 1 2 3 4 4 4 5 8 10 12 13 14 16 18 19 21 23 23 24 25 26 25 25
26 25 24 23 22 20 20 20 22 16 17 14 12 11 10 9 10 9 8 8 7 7 6 5 3 4 5 5 6 7 8 8 8 10 13 14 16 18 19 21 22 22 24 26 27 28 30 31 30
29 27 26 26 25 23 24 23 23 23 21 18 16 15 14 12 13 12 12 12 12 12 11 10 9 8 9 9 9 11 12 12 12 11 12 15 16 17 19 21 22 23 25 27 29 30 31 32 33
30 28 28 28 27 25 25 25 26 26 24 22 20 17 17 18 18 16 15 16 15 16 15 15 14 13 12 12 13 13 14 14 14 14 14 15 17 19 21 22 22 22 24 27 28 31 33 33 35
30 29 29 28 27 26 24 26 27 27 26 25 24 22 21 20 22 19 17 18 19 17 18 18 18 18 16 16 17 17 17 17 18 18 18 17 18 20 21 23 24 25 26 29 30 31 32 34 35
34 31 30 29 29 28 28 27 27 28 27 27 27 26 24 25 26 22 22 23 21 20 21 21 20 22 21 20 20 21 20 20 22 22 22 23 23 24 24 23 24 26 27 29 31 34 34 34 35
33 31 29 29 30 31 29 26 28 29 27 28 28 28 29 28 29 28 27 25 24 25 25 24 24 25 24 24 24 23 25 23 25 26 27 28 29 28 29 28 27 28 28 28 29 32 34 36 37
33 32 30 31 32 32 30 27 28 29 29 29 30 31 31 31 31 31 29 28 28 29 30 30 29 28 27 28 28 28 28 29 29 30 31 32 34 33 32 33 32 33 34 33 33 34 35 37 38
34 32 32 32 32 33 30 29 25 27 29 31 31 31 31 33 34 33 32 31 30 31 32 33 33 32 32 33 32 34 35 33 34 35 36 37 39 39 38 38 37 38 39 39 39 38 39 40 41
34 34 34 35 34 32 31 34 28 26 28 30 32 32 32 33 35 35 35 35 34 34 36 37 37 38 38 38 37 38 39 40 40 41 41 43 44 44 44 44 44 43 43 44 44 44 44 43 44
37 36 36 35 34 34 33 34 35 33 32 31 32 33 34 34 36 37 37 37 38 39 40 40 41 42 43 44 44 44 44 45 45 45 47 47 48 49 50 49 50 50 49 49 50 49 48 47 48
40 39 38 37 37 37 38 36 38 40 37 37 36 36 36 37 39 39 40 41 42 43 43 44 45 46 47 48 49 49 50 51 51 51 51 51 51 52 54 55 53 54 54 55 55 56 57 55 57
43 43 43 44 43 42 42 40 42 44 43 40 41 41 40 40 41 43 44 45 45 46 48 48 48 50 51 51 52 53 55 54 54 55 56 56 56 54 54 55 57 57 57 58 59 59 59 60 61
49 48 47 48 48 49 47 46 47 47 48 48 43 44 45 46 46 45 46 46 48 48 49 51 52 53 53 55 56 56 57 57 55 54 53 53 54 55 57 57 59 59 59 60 62 62 62 62 62
53 51 51 52 52 53 53 52 53 50 50 53 53 48 47 48 49 49 49 48 50 52 52 51 51 51 53 53 54 54 55 54 53 52 51 52 54 56 58 60 61 62 60 61 62 63 63 66 66
55 55 55 54 54 55 55 56 57 57 55 53 53 51 49 50 50 51 51 51 51 53 53 52 52 53 53 53 54 53 52 52 52 51 50 51 51 52 55 57 58 63 66 67 66 67 68 70 71
55 55 56 56 54 54 54 55 55 56 55 54 52 52 52 49 49 49 50 52 54 54 54 55 56 56 57 57 57 57 57 57 55 53 55 56 58 58 59 62 62 64 69 66 64 66 68 70 69
Wind_Direction
149 138 125 124 107 108 93 87 80 76 76 75 74 77 86 92 99 115 106 108 124 139 157 195 179 128 142 157 176 167 161 173 187 202 193 223 233 244 257 276 292 295 301 296 288 284 279 278 277
145 132 124 118 118 113 100 92 88 82 77 77 75 74 76 82 87 95 101 102 105 113 109 153 116 102 140 139 148 165 147 154 174 187 203 221 241 249 256 278 297 294 286 286 281 281 280 281 280
142 141 124 114 114 119 106 96 91 85 81 78 77 75 74 78 81 88 92 97 101 104 114 110 113 118 115 118 124 120 116 134 152 181 196 205 199 213 254 274 278 281 285 281 280 277 273 272 269
148 141 124 117 118 109 108 101 92 92 89 88 88 84 80 79 80 79 83 89 98 102 107 106 107 105 103 104 106 107 112 117 133 135 147 169 192 246 270 290 304 291 277 275 271 270 270 268 269
155 143 130 122 115 108 109 101 92 91 95 94 91 89 88 79 81 82 82 84 88 90 94 97 102 101 107 102 106 110 108 107 112 117 120 123 120 109 254 262 255 264 263 262 265 266 266 267 269
152 143 135 128 129 121 111 106 100 94 91 86 87 90 86 88 83 83 84 85 88 88 87 87 88 90 96 100 101 104 109 119 123 135 133 133 157 201 251 263 265 268 273 275 275 271 273 272 269
150 147 136 139 147 133 125 112 108 103 94 92 89 90 90 83 82 89 86 91 92 90 87 88 90 90 88 86 86 86 94 94 104 102 105 106 111 74 300 287 291 290 292 297 296 290 285 280 279
153 155 146 145 151 140 130 118 112 115 106 101 100 92 92 88 77 75 89 90 92 94 94 92 93 97 93 93 92 88 79 81 72 64 56 23 1 348 325 316 304 300 298 297 292 288 284 285 283
164 163 154 157 156 153 137 134 121 113 112 97 100 96 94 93 90 82 76 81 90 100 99 99 99 102 110 111 108 114 126 129 238 297 321 318 315 314 313 307 304 302 301 296 293 290 288 283 277
172 167 168 178 170 155 152 151 154 143 133 123 107 101 87 88 94 113 119 122 91 87 90 93 95 102 105 113 103 90 73 7 300 285 297 294 314 310 307 301 298 300 299 299 298 295 292 288 287
183 176 184 190 194 173 183 175 166 167 179 207 150 120 104 76 78 68 99 102 91 85 80 86 81 86 100 91 91 82 40 354 318 307 302 299 301 301 303 302 302 302 300 299 297 297 297 299 299
193 193 192 206 205 220 205 200 199 187 193 218 247 221 191 54 37 317 220 91 103 95 90 75 70 54 52 35 356 350 324 313 299 299 298 296 296 298 300 301 303 304 305 303 301 297 297 299 300
202 211 207 210 216 224 226 228 225 209 215 218 252 254 238 256 282 260 245 178 191 159 131 113 56 8 6 352 348 343 340 324 307 304 303 300 297 298 299 298 297 296 297 298 298 298 297 294 293
211 219 222 223 226 225 232 232 243 226 231 232 239 262 255 246 253 255 241 237 244 238 263 220 345 24 41 35 9 354 339 333 329 318 318 316 313 310 304 299 294 292 292 291 291 292 291 290 291
220 226 230 232 237 234 236 236 242 240 236 236 239 250 258 261 248 244 236 237 238 238 249 243 256 284 298 307 315 316 312 306 305 305 305 307 308 308 305 301 299 298 294 292 289 287 287 290 290
226 229 236 239 241 239 241 242 242 247 242 244 238 243 252 256 259 248 243 236 236 235 243 244 251 262 278 291 305 309 307 305 307 306 301 308 313 314 312 309 308 305 301 297 297 294 292 290 289
228 231 236 239 243 242 244 245 246 247 250 249 250 248 251 254 254 249 242 242 237 243 245 251 254 258 268 279 291 291 293 293 298 299 297 303 309 316 319 318 316 309 304 301 300 300 299 294 291
231 232 234 238 243 245 245 245 246 249 247 248 249 247 246 250 258 257 251 247 246 242 247 251 257 266 268 278 285 283 284 286 290 290 293 297 302 309 314 314 309 307 306 304 304 302 299 295 293
230 232 236 240 243 245 245 245 249 250 249 249 252 251 248 246 250 251 250 246 246 248 246 250 258 265 272 276 283 279 286 288 291 290 291 292 296 298 303 308 309 310 309 308 308 306 304 297 293
231 235 240 244 246 248 248 247 251 254 252 252 252 252 250 248 252 253 252 256 253 250 251 254 256 262 270 276 279 282 283 286 287 286 286 289 290 294 297 300 303 305 307 306 305 304 305 305 300
232 236 238 242 245 246 247 244 247 252 255 254 250 248 250 251 250 252 252 253 254 251 251 253 256 261 265 268 274 277 277 279 283 284 284 288 290 292 293 297 299 300 302 304 303 302 300 299 298
233 236 240 244 247 250 252 247 243 248 252 252 255 253 250 252 252 253 253 252 251 251 254 257 261 264 265 268 269 274 277 280 280 281 284 285 289 292 294 296 295 296 298 300 300 299 298 299 295
234 237 241 244 247 249 252 257 244 242 246 251 253 253 252 253 254 255 254 254 255 255 254 255 259 262 265 268 270 273 276 279 280 282 284 285 286 289 292 293 293 294 295 296 296 294 293 295 296
236 239 243 244 248 251 250 253 255 251 247 246 250 254 254 252 251 252 254 255 255 256 257 258 260 263 266 268 271 273 274 276 278 280 283 284 284 286 289 289 290 293 293 293 294 295 295 293 293
241 242 246 248 248 251 253 252 257 259 254 253 251 249 250 254 257 255 255 255 257 258 260 261 262 263 266 269 272 273 274 276 277 278 278 280 280 282 284 286 288 290 290 291 292 293 294 294 296
245 245 246 249 250 251 254 255 254 259 260 256 255 255 254 253 252 255 257 259 260 261 262 264 266 266 265 266 268 270 271 274 275 276 277 278 278 279 279 281 283 285 286 287 289 290 291 292 292
244 247 249 249 251 251 253 255 258 260 263 265 258 255 256 255 255 254 254 256 257 259 261 262 263 265 266 266 267 268 270 273 274 275 276 277 277 276 277 278 278 281 282 285 286 288 288 288 288
246 246 247 250 251 253 255 254 256 258 260 263 267 264 259 257 258 260 260 260 258 258 260 262 265 267 268 270 271 273 274 276 276 276 275 274 273 274 274 276 276 277 279 284 283 285 285 286 287
244 246 247 248 249 253 255 256 256 257 258 260 264 267 267 263 262 263 264 265 265 265 266 266 268 269 270 270 271 272 273 274 274 274 272 272 273 273 273 276 277 274 275 282 281 281 281 282 283
243 243 244 245 247 249 251 253 257 259 260 261 262 265 269 270 269 266 264 265 267 268 269 269 269 269 269 270 271 273 274 274 275 277 278 278 278 277 275 274 276 276 277 280 281 282 281 283 286
Height
5849 5849 5849 5851 5854 5854 5853 5853 5852 5851 5851 5850 5850 5850 5850 5849 5850 5852 5849 5849 5848 5849 5848 5849 5850 5850 5850 5852 5854 5856 5857 5859 5861 5864 5864 5866 5868 5869 5870 5870 5870 5871 5871 5870 5870 5869 5869 5868 5868
5849 5850 5850 5849 5853 5853 5854 5853 5853 5853 5852 5851 5852 5853 5853 5852 5852 5852 5852 5851 5850 5851 5851 5850 5851 5851 5852 5852 5854 5857 5858 5860 5862 5863 5864 5866 5868 5868 5869 5870 5870 5870 5869 5869 5868 5867 5867 5867 5866
5848 5850 5851 5850 5853 5853 5854 5856 5854 5854 5855 5854 5854 5855 5855 5855 5855 5854 5854 5854 5853 5853 5854 5853 5852 5853 5854 5855 5857 5859 5859 5861 5864 5865 5865 5866 5868 5868 5868 5869 5869 5869 5869 5868 5867 5867 5865 5865 5865
5849 5851 5851 5852 5854 5854 5855 5856 5855 5856 5857 5857 5856 5858 5859 5859 5858 5858 5857 5856 5855 5856 5856 5855 5855 5854 5856 5857 5858 5860 5861 5862 5864 5865 5866 5867 5868 5868 5868 5869 5868 5868 5867 5867 5866 5867 5865 5864 5864
5850 5852 5852 5853 5854 5855 5857 5856 5856 5859 5858 5860 5860 5859 5861 5861 5862 5861 5861 5860 5859 5859 5859 5858 5858 5858 5859 5859 5861 5862 5863 5864 5865 5866 5867 5867 5868 5868 5868 5868 5868 5868 5868 5866 5866 5865 5864 5863 5862
5850 5852 5853 5854 5856 5856 5858 5858 5858 5860 5860 5862 5863 5862 5862 5863 5864 5864 5863 5863 5862 5862 5861 5861 5861 5861 5862 5862 5863 5864 5864 5865 5866 5867 5867 5867 5867 5868 5868 5868 5868 5867 5867 5866 5865 5863 5862 5862 5861
5849 5851 5854 5855 5857 5857 5859 5859 5859 5860 5862 5862 5864 5864 5864 5864 5865 5866 5866 5865 5865 5864 5864 5863 5862 5863 5863 5864 5865 5865 5866 5866 5867 5867 5867 5867 5867 5867 5868 5867 5868 5866 5866 5865 5864 5863 5861 5861 5859
5849 5851 5853 5856 5857 5858 5858 5860 5860 5860 5861 5864 5865 5866 5866 5865 5866 5867 5867 5867 5867 5867 5866 5866 5865 5865 5865 5865 5866 5867 5866 5867 5867 5867 5867 5867 5866 5866 5867 5866 5866 5865 5864 5863 5863 5861 5860 5859 5858
5848 5851 5852 5856 5858 5858 5858 5859 5860 5861 5861 5864 5866 5867 5868 5867 5867 5867 5868 5869 5868 5868 5868 5867 5867 5867 5867 5867 5867 5867 5867 5867 5867 5867 5867 5867 5866 5867 5866 5866 5866 5864 5863 5862 5861 5860 5858 5857 5856
5847 5850 5852 5854 5857 5858 5859 5859 5860 5862 5862 5863 5866 5867 5868 5869 5868 5868 5868 5868 5870 5869 5868 5868 5868 5868 5868 5868 5868 5868 5868 5868 5867 5867 5867 5867 5866 5866 5865 5865 5864 5862 5861 5860 5859 5858 5856 5855 5853
5846 5848 5851 5853 5856 5856 5859 5859 5860 5861 5863 5864 5865 5867 5868 5869 5869 5869 5869 5869 5869 5869 5869 5869 5869 5869 5868 5868 5868 5868 5867 5867 5866 5866 5867 5866 5866 5865 5865 5864 5862 5860 5859 5858 5856 5855 5853 5852 5851
5843 5847 5849 5852 5854 5857 5858 5860 5860 5861 5863 5863 5865 5865 5866 5868 5869 5869 5869 5869 5869 5869 5869 5870 5870 5869 5869 5868 5868 5867 5867 5867 5867 5866 5866 5866 5864 5864 5862 5861 5860 5858 5857 5855 5854 5852 5850 5849 5848
5842 5845 5847 5850 5852 5855 5857 5859 5859 5860 5861 5863 5864 5865 5865 5866 5867 5868 5869 5869 5869 5869 5869 5869 5869 5869 5869 5869 5868 5868 5867 5867 5866 5865 5864 5863 5863 5861 5860 5859 5857 5855 5854 5853 5851 5849 5847 5846 5844
5839 5842 5844 5847 5850 5852 5855 5856 5857 5859 5861 5861 5862 5864 5863 5864 5865 5866 5867 5868 5868 5869 5868 5868 5868 5868 5868 5868 5867 5867 5866 5866 5865 5864 5862 5861 5860 5859 5857 5856 5854 5853 5851 5849 5847 5845 5844 5843 5841
5835 5839 5841 5843 5846 5849 5852 5853 5853 5858 5858 5860 5861 5862 5862 5862 5861 5862 5865 5866 5867 5867 5867 5867 5866 5866 5866 5865 5865 5865 5865 5864 5864 5862 5860 5859 5857 5856 5854 5852 5850 5848 5846 5845 5843 5841 5839 5837 5836
5831 5835 5837 5840 5842 5845 5848 5849 5851 5853 5856 5858 5859 5860 5861 5861 5860 5860 5861 5862 5864 5865 5865 5865 5865 5864 5863 5863 5863 5862 5861 5861 5860 5860 5858 5856 5854 5852 5850 5848 5846 5844 5842 5840 5838 5836 5834 5832 5830
5827 5831 5834 5835 5838 5841 5843 5846 5847 5850 5852 5855 5856 5857 5858 5858 5858 5857 5858 5859 5860 5861 5862 5862 5862 5861 5861 5861 5861 5860 5859 5858 5857 5856 5854 5853 5851 5848 5846 5844 5842 5840 5837 5834 5832 5830 5828 5826 5823
5824 5825 5828 5831 5835 5836 5839 5841 5842 5844 5848 5850 5852 5852 5854 5855 5854 5856 5856 5856 5856 5857 5858 5857 5858 5858 5858 5858 5857 5856 5855 5854 5853 5851 5850 5848 5846 5844 5842 5840 5837 5834 5832 5829 5827 5824 5822 5819 5817
5817 5820 5823 5826 5829 5831 5833 5836 5837 5838 5843 5845 5846 5848 5849 5850 5849 5851 5850 5850 5852 5853 5854 5853 5853 5852 5853 5853 5853 5852 5852 5851 5849 5847 5845 5843 5842 5839 5837 5835 5832 5829 5827 5824 5822 5819 5816 5813 5810
5813 5816 5819 5821 5823 5825 5827 5832 5833 5833 5837 5839 5841 5842 5842 5843 5844 5845 5846 5847 5848 5849 5849 5850 5849 5848 5847 5848 5847 5848 5846 5846 5844 5842 5839 5837 5835 5834 5832 5830 5827 5824 5820 5818 5815 5812 5809 5806 5804
5807 5810 5812 5814 5816 5818 5821 5827 5828 5829 5831 5832 5833 5834 5835 5837 5839 5839 5840 5841 5841 5842 5842 5843 5843 5843 5843 5842 5842 5841 5840 5839 5838 5835 5833 5831 5829 5827 5825 5822 5820 5817 5813 5811 5808 5805 5801 5799 5796
5800 5803 5806 5808 5810 5813 5817 5819 5824 5825 5825 5824 5826 5828 5830 5831 5832 5832 5833 5834 5835 5835 5836 5836 5837 5838 5837 5836 5836 5834 5833 5833 5831 5829 5827 5825 5822 5819 5817 5814 5811 5808 5805 5803 5799 5796 5793 5789 5787
5793 5795 5799 5802 5804 5807 5811 5811 5817 5819 5818 5818 5819 5820 5822 5824 5825 5826 5826 5827 5828 5829 5829 5829 5829 5830 5829 5828 5829 5827 5826 5824 5823 5820 5818 5816 5813 5811 5809 5805 5802 5800 5797 5793 5789 5786 5782 5779 5776
5785 5788 5791 5794 5797 5801 5803 5805 5807 5809 5811 5812 5812 5813 5814 5816 5817 5817 5818 5819 5820 5820 5820 5821 5821 5821 5820 5820 5819 5818 5817 5815 5814 5812 5809 5806 5804 5802 5799 5796 5793 5789 5787 5784 5780 5776 5772 5769 5764
5778 5781 5784 5788 5789 5793 5794 5798 5798 5797 5802 5803 5805 5807 5807 5808 5808 5810 5811 5810 5810 5810 5811 5811 5812 5812 5812 5811 5810 5808 5807 5805 5803 5801 5799 5796 5793 5791 5788 5785 5783 5780 5777 5773 5770 5766 5762 5758 5754
5769 5772 5775 5777 5780 5786 5786 5788 5788 5787 5790 5792 5795 5797 5798 5800 5800 5800 5801 5801 5802 5802 5802 5802 5802 5802 5801 5799 5797 5796 5794 5793 5792 5789 5787 5786 5783 5780 5777 5774 5772 5769 5765 5761 5757 5755 5751 5747 5742
5759 5763 5766 5768 5771 5774 5778 5780 5779 5779 5780 5780 5785 5787 5787 5788 5789 5791 5791 5792 5791 5791 5790 5790 5789 5789 5788 5787 5785 5783 5782 5780 5779 5776 5775 5773 5771 5768 5765 5762 5760 5757 5753 5749 5745 5742 5738 5734 5730
5748 5753 5753 5757 5761 5764 5767 5769 5769 5770 5771 5770 5769 5773 5776 5777 5778 5778 5779 5779 5779 5779 5778 5778 5777 5776 5775 5774 5773 5771 5770 5768 5766 5764 5762 5760 5757 5754 5752 5749 5747 5744 5740 5736 5732 5729 5724 5720 5716
5736 5739 5742 5746 5749 5752 5757 5759 5758 5760 5761 5761 5759 5760 5763 5766 5767 5767 5767 5767 5766 5766 5767 5766 5765 5764 5763 5761 5759 5756 5755 5753 5752 5750 5747 5745 5742 5740 5737 5734 5731 5729 5725 5721 5717 5713 5709 5705 5701
5723 5727 5730 5731 5738 5741 5744 5748 5748 5747 5748 5748 5752 5751 5751 5751 5753 5755 5756 5755 5753 5753 5754 5753 5751 5750 5749 5747 5745 5743 5740 5738 5737 5735 5732 5730 5728 5725 5722 5719 5716 5713 5711 5706 5702 5698 5695 5691 5688